Regional Weather Roundup
Issued by NWS Wakefield, VA

Home | Current Version | Previous Version | Graphics & Text | Print | Product List | Glossary On
Versions: 1 2 3 4 5 6 7 8 9 10 11 12 13 14 15 16 17 18 19 20 21 22 23 24 25 26 27 28 29 30 31 32 33 34 35 36 37 38 39 40 41 42 43 44 45 46 47 48 49 50
000
ASUS41 KAKQ 060110
RWRAKQ

REGIONAL WEATHER ROUNDUP
NATIONAL WEATHER SERVICE WAKEFIELD VA
800 PM EST THU MAR 05 2015

Note: "fair" indicates few or no clouds below 12,000 feet with no
significant weather and/or obstructions to visibility. * = Denotes
station may not report precipitation (e.g., rain,snow,etc.),
thunder or fog.

VAZ042-051-052>054-056-060200-
NORTHERN VIRGINIA

CITY           SKY/WX    TMP DP  RH WIND       PRES   REMARKS
WASH NATIONAL  FLURRIES  27  18  69 N15       30.36R WCI  15
DULLES         FLURRIES  24  16  71 N13G21    30.35R WCI  12
FORT BELVOIR   DRIZZLE   25  19  76 NW10      30.36R WCI  15
QUANTICO       CLOUDY    26  20  77 NE8       30.38R
FREDERICKSBRG* MIX PCPN  27  27  99 N6        30.36R
STAFFORD*      LGT SNOW  24  24 100 CALM      30.40R
WARRENTON      CLOUDY    26  23  86 N8        30.36R
CULPEPER*      CLOUDY    27  18  69 N7        30.37R
MANASSAS*      NOT AVBL
LEESBURG*      FLURRIES  25  19  80 N16       30.36R WCI  12
WINCHESTER     CLOUDY    23  12  63 N12       30.35R WCI  12
FRONT ROYAL*   CLOUDY    21  18  86 N5        30.33R
LURAY*         FLURRIES  27  21  80 N7        30.33R
$$

VAZ048-049-060>072-079>083-060200-
CENTRAL AND SOUTH CENTRAL VIRGINIA

CITY           SKY/WX    TMP DP  RH WIND       PRES   REMARKS
RICHMOND       LGT SNOW  28  23  81 N14G22    30.31R FOG     WCI  17
CHESTERFIELD*  CLOUDY    27  16  63 N12G17    30.32S WCI  16
PETERSBURG*    LGT SNOW  30  28  94 N10       30.30R WCI  21
HANOVER        LGT SNOW  26  23  88 VRB5      30.34R FOG
TAPPAHANNOCK*  LGT SNOW  28  24  87 NW9       30.33R
QUINTON*       CLOUDY    27  25  91 N9        30.31R
CHARLOTTSVILLE CLOUDY    26  22  84 NE5       30.32R
GORDONSVILLE*  CLOUDY    25  20  84 NE7       30.33R
ORANGE*        CLOUDY    27  23  86 NW7       30.35R
LOUISA*        LGT SNOW  27  23  86 N7        30.32R
BUMPASS*       CLOUDY    25  21  85 N3        30.33R
FARMVILLE*     CLOUDY    30  30 100 N7          N/A
CREWE*         CLOUDY    28  25  87 N7        30.30R
FORT PICKETT*  CLOUDY    28  27  96 N9        30.28R
CHASE CITY*    CLOUDY    31  31  99 N10       30.29R WCI  23
CLARKSVILLE*   CLOUDY    32  28  86 N7        30.29R
SOUTH HILL*    CLOUDY    28  26  89 N12G17    30.34R WCI  18
LAWRENCEVILLE* CLOUDY    29  27  91 N5        30.28R
EMPORIA*       FLURRIES  30  28  93 NW17G24   30.29R WCI  18
$$

VAZ088>098-060200-
SOUTHEAST VIRGINIA

CITY           SKY/WX    TMP DP  RH WIND       PRES   REMARKS
NORFOLK        LGT SNOW  31  28  89 N20G31    30.24S FOG     WCI  19
VIRGINIA BEACH LGTSLEET  33  29  85 N22G31    30.23R FOG     WCI  21
NORFOLK NAVAL  LGTSLEET  34  29  82 N21G29    30.26R WCI  22
WEST POINT*    CLOUDY    31  28  90 NW7       30.32R
SALUDA*        CLOUDY    27  26  93 N9        30.28R VSB 1
NEWPORT NEWS   LGT RAIN  33  29  85 N14       30.26R FOG     WCI  23
LANGLEY AFB    FRZ RAIN  32  28  86 NE13G20   30.25S FOG     WCI  22
FORT EUSTIS    MIX PCPN  31  31 100 NE8G20    30.26R FOG
WILLIAMSBURG*  CLOUDY    34  30  86 N8G22     30.27S
HR EXEC AP*    CLOUDY    32  28  86 N9G16     30.25F
FRANKLIN*      RAIN      32  31  95 N14       30.27R WCI  22
WAKEFIELD      LGT SNOW  30  27  88 N7G20     30.29R FOG
$$

VAZ020-022-025-037-045-060200-
WEST CENTRAL AND SOUTHWEST VIRGINIA

CITY           SKY/WX    TMP DP  RH WIND       PRES   REMARKS
STAUNTON*      CLOUDY    24  19  82 NE3       30.32R
WAYNESBORO*    CLOUDY    21  19  91 N6        30.28R
HOT SPRINGS VA CLOUDY    15  15  99 CALM      30.10R
LYNCHBURG      FLURRIES  28  27  96 NE8       30.30R
DANVILLE       CLOUDY    33  28  81 NE13G18   30.30R WCI  24
SOUTH BOSTON*  CLOUDY    31  27  87 N6        30.31R
MARTINSVILLE   CLOUDY    32  28  84 N10       30.32R WCI  24
ROANOKE        CLOUDY    29  20  69 NW3       30.31R
BLACKSBURG     CLOUDY    22  15  74 W10       30.28R WCI  12
DUBLIN*        CLOUDY    25  19  80 NW7       30.28R
MARION*        CLOUDY    23  17  80 W9        30.28R
HILLSVILLE*    CLOUDY    23  20  85 NW12      30.21R WCI  12
RICHLANDS*     FLURRIES  18  13  83 NW7       30.30R
WISE*          FLURRIES  18  18 100 N10       30.32R WCI   6
ABINGDON*      CLOUDY    24  19  83 N8        30.32R
$$

MDZ021>025-VAZ099-100-060200-
SOUTHERN MARYLAND AND THE DELMARVA PENINSULA

CITY           SKY/WX    TMP DP  RH WIND       PRES   REMARKS
PATUXENT RIVER LGT SNOW  25  21  85 N15       30.33R FOG     WCI  13
BAY BRIDGE APT   N/A     25  14  63 N14G21    30.34S WCI  13
LEONARDTOWN    CLOUDY    27  23  86 CALM      30.34R
DOVER          LGT SNOW  21  21 100 NW16      30.33R FOG     WCI   7
GEORGETOWN     CLOUDY    22  18  85 N9G18     30.31R
EASTON         NOT AVBL
CAMBRIDGE      CLOUDY    27  21  80 N9        30.33R
SALISBURY      CLOUDY    25  20  81 N12       30.29R HAZE    WCI  14
OCEAN CITY     FOG       24  22  91 N16G22    30.29R VSB 3/4 WCI  11
WALLOPS ISLAND LGT SNOW  25  23  92 N20G29    30.29R VSB 1   WCI  11
ACCOMACK*      LGT SNOW  30  27  86 N15G25    30.26R WCI  19
$$

NCZ012>017-030>032-060200-
NORTH CENTRAL AND EASTERN NORTH CAROLINA

CITY           SKY/WX    TMP DP  RH WIND       PRES   REMARKS
ROANOKE RAPIDS LGT SNOW  32  32 100 N15       30.26R WCI  22
RALEIGH        LGT RAIN  34  31  88 N6G20     30.25R
ELIZABETH CITY CLOUDY    35  32  88 N21G26    30.19R WCI  24
AHOSKIE*       LGT RAIN  32  31  96 N13       30.24R WCI  22
EDENTON*       CLOUDY    34  32  93 N9G23     30.20S FOG
CURRITUCK*     CLOUDY    35  32  90 N18G30    30.22R WCI  24
KILL DEVIL HLS RAIN      35  35 100 N15G26    30.16R
MANTEO         DRIZZLE   35  34  96 N20G35    30.17R WCI  24
CAPE HATTERAS  LGT RAIN  41  41 100 NE13G24   30.07F
TARBORO*       LGT RAIN  35  33  92 N15G21    30.23R
GOLDSBORO      LGT RAIN  37  37  99 N15G21    30.19R
WASHINGTON     CLOUDY    36  34  93 N16G22    30.21R
GREENVILLE     CLOUDY    36  34  93 N18G25    30.23R
NEW BERN       RAIN      39  37  92 N13G22    30.19R FOG
WILMINGTON     HVY RAIN  41  39  93 N10       30.14R FOG
$$

VAZ048-060200-
ELSEWHERE

CITY           SKY/WX    TMP DP  RH WIND       PRES   REMARKS
HARRISBURG PA  CLOUDY    21  13  71 NW7       30.34R
BALTIMORE      FLURRIES  23  16  74 N8        30.34R
ANNAPOLIS      CLOUDY    24  16  71 N10       30.36R WCI  14
ANDREWS AFB    FLURRIES  23  19  86 N13       30.33R WCI  11
PHILADELPHIA   CLOUDY    21  13  71 NW9       30.34R
HENDERSON NC   CLOUDY    31  28  88 CALM      30.27R
GREENSBORO     CLOUDY    34  30  85 N9G17     30.26R
ROCKY MOUNT    LGT RAIN  34  32  92 N15G24    30.25R WCI  24
$$

VAZ100-060200-
MARINE

STATION/POSITION TIME  TEMP    WIND        PRES    WAVE   SWELL
                       AIR SEA DIR/SP/G            HT/PER HT/PER
                 (UTC) (F)     (DEG/KT/KT) (MB)    (FT/S) (FT/S)
BRANDYWINE LGT   0100   23 30  360/ 24/ 29 1025.6R
CAPE MAY NJ      0100   21 34  350/ 12/ 19 1025.0F
LEWES DE         0100   24 31  350/ 20/ 24 1026.1R
15NM E FENWICK I 0100   26 35              1023.8R   6/ 6
OCEAN-CITY-INLET 0100   25 33  360/ 16/ 19 1024.9R
WACHAPREAGUE VA  0100   28 38   10/  6/ 15 1024.3S
THOMAS POINT MD  0100          110/ 16/ 20   N/A
COVE POINT MD    0100   23      20/ 13/ 16 1026.5R
SOLOMONS ISLAND  0100      33                N/A
BISHOPS HEAD MD  0100   24 31  360/  9/ 13 1025.8F
CAMBRIDGE MD     0100   24 32  350/  9/ 12 1027.0R
LEWISETTA VA     0100   26 33   10/ 11/ 16 1026.6R
RAPPAHANNOCK LGT 0100          350/ 29/ 32 1025.8R
STINGRAY PT      0100   28 33   10/ 21/ 27   N/A     3/ 3
YORK RVR RNG VA  0100   31      10/ 22/ 24 1024.1R
YORKTOWN VA      0100   31 35  360/ 16/ 19 1024.6R
DOMINION TERM VA 0100   32      10/  9/ 12 1024.3F
KIPTOPEKE VA     0100      39   20/ 20/ 27   N/A
CHES BAY BRIDGE  0100   30 34  350/ 30/ 33 1024.0R
CAPE HENRY VA    0100   31     350/ 30/ 34 1022.6R
CHESAPEAKE LGHT  0000   33      20/ 26/ 29 1021.5R
WILLOUBY STN VA  0100   31      10/ 18/ 20 1024.6F
S CRANEY ISL VA  0100           10/ 20/ 24 1023.8S
CAPE HENRY BUOY  0100      35                N/A     7/ 7
1ST LANDING BUOY 0100   31 34  360/ 25/ 31 1023.8R   4/ 4
OFFSHORE WE BUOY 0100      36                N/A     9/ 8   3/10
64NM E OF VA BCH 0100   43 53  360/ 29/ 35 1018.5R   9/ 8   5/ 8
DUCK PIER NC     0100   33 36   10/ 30/ 34 1020.6R
44100 DUCK FRF   0100      39                N/A     9/ 8   2/11
44056 DUCK FRF   0100      35                N/A     8/ 8   2/11
OREGON INLET NC  0100   36 47  340/ 14/ 22 1020.2R
HATTERAS NC      0100      52   50/ 13/ 21 1018.8R
CAPE LOOKOUT NC  0000          360/ 22/ 27 1018.9R
$$



USA.gov is the U.S. government's official web portal to all federal, state and local government web resources and services.